Location: A�t �Alizem
(31.2076°N, 8.7872°W)
Time: 00:54:03
(UTC+00:00)

deb Explorer IX - Pass Details

Date: 26 June 2021
Orbit: 541 x 1234 km, 38.9° (Epoch: 29 July)

Event Time Altitude Azimuth Distance (km) Brightness Sun altitude
Rises 20:36:46 0° 209° (SSW) 2,681 ? -10.6°
Reaches altitude 10° 20:39:22 10° 193° (SSW) 1,787 ? -11.0°
Maximum altitude 20:42:28 22° 142° (SE) 1,237 ? -11.5°
Enters shadow 20:44:28 16° 105° (ESE) 1,515 ? -11.9°
